Lincoln Airport Lincoln US
ICAO: KLNK
IATA: LNK
Category: Medium
Scheduled Services: Yes

Elevation: 1219 ft
TransAlt. 18000 ft.

Airport Communications:
APP/DEP:124
ATIS:118.05
CLNC DEL:120.7
CTAF:118.5
GND:121.9
ARNG OPS:123.075
ANG OPS:25.96
COLUMBUS RDO:122.65
TWR:118.5
UNICOM:122.95

KLNK Zoom In..

If Map Doesn't Load, Click Here

Runways:

(A) RW 14 length 8649 ft width 150 ft
---- / hdg 139

(B) RW 17 length 5800 ft width 100 ft
---- / hdg 174

(C) RW 18 length 12901 ft width 200 ft
ILS 111.10 / hdg 174

(D) RW 32 length 8649 ft width 150 ft
---- / hdg 319

(E) RW 35 length 5800 ft width 100 ft
---- / hdg 354

(F) RW 36 length 12901 ft width 200 ft
ILS 109.90 / hdg 354

Location; KLNK
Day. 26 / Time. 10.54 Zulu
* Altimeter: 30.26
* Temperature: 08° c. 46.4°f.
* Wind from: 300° Speed 04 kn.
Dewpoint: 04° c.
Visibility: 10 Statute Miles.
Clouds: Clear (automated report).

KLNK 261054Z AUTO 30004KT 10SM CLR 08/04 A3026 RMK AO2 SLP246 T00830044


Wind From 300°
Speed 04 kn.

 
 
jpsmedia.com for Web Design worldairports.se 2018   terms of use